This is the latest recevied weather packets stored in our database for station/object NI0Z. If no packets are shown the sender has not sent any weather packets the latest 10 day(s).
| Time | Temp. | Humidity | Pressure | Rain* | Wind** | Luminosity | Snow |
|---|---|---|---|---|---|---|---|
| 1777397738 | 11.67° C | 73% | - | 0 mm | - | - | - |
| 1777397434 | 11.67° C | 71% | - | 0 mm | - | - | - |
| 1777397131 | 12.22° C | 71% | - | 0 mm | - | - | - |
| 1777396827 | 12.22° C | 72% | - | 0 mm | - | - | - |
| 1777396524 | 11.67° C | 72% | - | 0 mm | - | - | - |
| 1777396221 | 11.67° C | 71% | - | 0 mm | - | - | - |
| 1777395916 | 11.67° C | 74% | - | 0 mm | - | - | - |
| 1777395612 | 11.67° C | 72% | - | 0 mm | - | - | - |
| 1777395309 | 11.67° C | 72% | - | 0 mm | - | - | - |
| 1777395006 | 11.67° C | 73% | - | 0 mm | - | - | - |
| 1777394703 | 11.67° C | 72% | - | 0 mm | - | - | - |
| 1777394399 | 11.67° C | 71% | - | 0 mm | - | - | - |
| 1777394096 | 11.67° C | 73% | - | 0 mm | - | - | - |
| 1777393791 | 11.11° C | 72% | - | 0 mm | - | - | - |
| 1777393490 | 11.11° C | 73% | - | 0 mm | - | - | - |
| 1777393187 | 10.56° C | 74% | - | 0 mm | - | - | - |
| 1777392883 | 10.56° C | 73% | - | 0 mm | - | - | - |
| 1777392578 | 10.56° C | 74% | - | 0 mm | - | - | - |
| 1777392275 | 11.11° C | 73% | - | 0 mm | - | - | - |
| 1777391969 | 10.56° C | 74% | - | 0 mm | - | - | - |
| 1777391664 | 10.56° C | 74% | - | 0 mm | - | - | - |
| 1777391361 | 10.56° C | 74% | - | 0 mm | - | - | - |
| 1777391058 | 11.11° C | 74% | - | 0 mm | - | - | - |
| 1777390754 | 10.56° C | 74% | - | 0 mm | - | - | - |
| 1777390451 | 10.56° C | 75% | - | 0 mm | - | - | - |
* Rain latest hour (hover to see other rain measurements)
** Current wind speed in m/s (hover to see current wind gust speed)